sat.trackr.live / text

‹ back to catalog

STARLINK-32131

NORAD 60153 · 2024-120U

PAYLOAD ACTIVE UNKNOWN

§ Identity

Operator
Country
US
Launch date
2024-06-27
Launch site
AFETR
Launch vehicle
Mass (kg)
RCS (m²)

Purposes: comms

External: N2YO · Heavens-Above · Gunter

§ Orbital elements

Epoch: 2026-05-24T21:22:36.935328Z

Period
93.85 min
Inclination
53.1620°
Eccentricity
0.0001151
Mean motion
15.34389616 rev/d
Perigee alt
461.9 km
Apogee alt
463.5 km
Semi-major
6,840.9 km
B*
4.6850e-5
RAAN
325.9228°
Arg perigee
74.5061°
Mean anomaly
285.6068°
Rev number
10,812

§ Raw data

STARLINK-321311 60153U 24120U   26144.89070527  .00001206  00000+0  46850-4 0  99942 60153  53.1620 325.9228 0001151  74.5061 285.6068 15.34389616108129

JSON: /api/v1/satellites/60153 · /tle

For live sub-satellite position, see the globe view (requires WebGL).

§ Visibility from observer

Set your observer location to see the next 7 days of passes ≥ 10°. The values pass through the URL so the page stays shareable.

No JS? Fill the form by hand. The geolocation button needs JavaScript.